Regional Weather Roundup
Issued by NWS

Home | Current Version | Previous Version | Text Only | Print | Product List | Glossary Off
Versions: 1 2 3 4 5 6 7 8 9 10 11 12 13 14 15 16 17 18 19 20 21 22 23 24 25 26 27 28 29 30 31 32 33 34 35 36 37 38 39 40 41 42 43 44 45 46 47 48 49 50

518
ASUS43 KTOP 231559
RWRKS

WEATHER ROUNDUP FOR KANSAS
NATIONAL WEATHER SERVICE GOODLAND KS
1100 AM CDT TUE AUG 23 2016

NOTE:  "FAIR" INDICATES FEW OR NO CLOUDS BELOW 12,000 FEET WITH NO
SIGNIFICANT WEATHER AND/OR OBSTRUCTIONS TO VISIBILITY.

KSZ001>006-013>018-027>032-041>047-231700-
NORTHWEST KANSAS

CITY           SKY/WX    TMP DP  RH WIND       PRES   REMARKS
GOODLAND       SUNNY     78  53  41 W7        29.90R
HAYS           SUNNY     84  64  51 S25G35    29.86R
HILL CITY      SUNNY     82  64  54 SW20G25   29.84F
RUSSELL        SUNNY     84  69  60 S26G33    29.86F
$$

KSZ061>065-074>080-084>089-231700-
SOUTHWEST KANSAS

CITY           SKY/WX    TMP DP  RH WIND       PRES   REMARKS
DODGE CITY     SUNNY     83  66  56 S21G32    29.93S
ELKHART          N/A     79  55  43 SW12        N/A
GARDEN CITY    SUNNY     82  60  47 SW21G28   29.91S
GREAT BEND     SUNNY     82  64  54 S25G32    29.90F
LIBERAL        SUNNY     84  63  48 SW24G31   29.96S
$$

KSZ066>073-081>083-090>101-231700-
SOUTHEAST KANSAS

CITY           SKY/WX    TMP DP  RH WIND       PRES   REMARKS
CHANUTE        CLOUDY    81  73  76 S20       30.06S
COFFEYVILLE    PTSUNNY   80  73  79 S16       30.07F
HUTCHINSON     PTSUNNY   84  71  65 S26G32    29.96F
NEWTON         MOSUNNY   80  72  76 S25G32    29.98F
PARSONS        PTSUNNY   81  74  79 S10G17    30.08S
WICHITA INTL   PTSUNNY   81  72  74 S18G31    29.98S
WICHITA JABRA  PTSUNNY   80  73  79 S17G24    29.99S
WICHITA MCCONL PTSUNNY   81  72  76 S22G31    29.99F
WINFIELD       CLOUDY    80  74  81 S17       30.03S
$$

KSZ007>012-019>026-033>040-048>060-102>105-231700-
NORTHEAST KANSAS

CITY           SKY/WX    TMP DP  RH WIND       PRES   REMARKS
CONCORDIA      PTSUNNY   80  70  71 S22G29    29.90S
EMPORIA        CLOUDY    80  72  76 S16G26    30.00F
LAWRENCE       CLOUDY    80  73  79 S16       30.01F
MANHATTAN      CLOUDY    81  72  74 S16G25    29.94F
OLATHE IND     PTSUNNY   79  72  79 S15       30.04F
OLATHE EXE     CLOUDY    76  71  85 S13       30.05F
SALINA         PTSUNNY   86  71  60 S23G33    29.91S
TOPEKA BILLARD CLOUDY    80  72  76 S13       29.99F
TOPEKA FORBES  CLOUDY    82  72  71 S16G29    29.99F
$$




USA.gov is the U.S. government's official web portal to all federal, state and local government web resources and services.